Simultaneous Nadir Overpasses (SNOs) Predictions

Prediction of SNOs between LANDSAT-8 and METOP-A Satellite Orbit:

Table of predicted SNOs for the next 14.0 days since TLE Epoch: 3/9/2018
Index Date (LANDSAT-8) Time (LANDSAT-8) Lat,Lon (LANDSAT-8) SZA (LANDSAT-8 ) Date (METOP-A) Time (METOP-A) Lat,Lon (METOP-A) SZA (METOP-A ) Distance(km) Time Diff (sec)
1 03/12/2018 03:48:24 -81.30, -14.77 93.36 03/12/2018 03:48:09 -81.30, -14.80 93.37 0.74 15
2 03/12/2018 04:37:49 81.33, 153.34 86.69 03/12/2018 04:38:48 81.32, 153.25 86.70 1.59 59
3 03/14/2018 23:22:37 -81.31, 51.84 94.43 03/14/2018 23:22:25 -81.31, 52.01 94.41 2.90 12
4 03/15/2018 00:12:03 81.31,-140.46 85.57 03/15/2018 00:13:05 81.32,-140.36 85.61 1.73 62
5 03/17/2018 18:56:50 -81.32, 118.41 95.50 03/17/2018 18:56:42 -81.31, 118.42 95.50 0.41 8
6 03/17/2018 19:46:16 81.32, -73.91 84.50 03/17/2018 19:47:22 81.32, -73.99 84.52 1.44 66
7 03/20/2018 14:31:03 -81.30,-175.42 96.62 03/20/2018 14:30:59 -81.30,-175.56 96.64 2.37 4
8 03/20/2018 15:20:28 81.32, -7.39 83.42 03/20/2018 15:21:37 81.33, -7.24 83.47 2.51 69
9 03/23/2018 09:15:54 81.19, 81.55 82.05 03/23/2018 09:14:40 81.25, 81.55 82.07 6.69 74
10 03/23/2018 10:05:16 -81.31,-108.92 97.70 03/23/2018 10:05:15 -81.31,-108.78 97.68 2.40 1




NCC Satellite Simultaneous Nadir Overpasses (SNOs) Prediction Service
